• In Hungary
  • List of Countries
  • For 7 days
  • Water Temperature
  • Satellite Maps
  • Weather Map
  • News
  • Weather Widgets
  • user-avatar
    Login

    Hourly Weather Serbino-Vedinyapino

    Today, 13 November, Tuesday

    Time Temperature Precipitation Wind Pressure Humidity
    00:00 -9°C° 0 mm 4 mps 769 mmHg 30%
    01:00 -10°C° 0 mm 4 mps 769 mmHg 31%
    02:00 -10°C° 0 mm 4 mps 769 mmHg 31%
    03:00 -10°C° 0 mm 4 mps 769 mmHg 32%
    04:00 -10°C° 0 mm 4 mps 769 mmHg 33%
    05:00 -10°C° 0 mm 4 mps 769 mmHg 33%
    06:00 -10°C° 0 mm 4 mps 769 mmHg 34%
    07:00 -10°C° 0 mm 4 mps 769 mmHg 33%
    08:00 -11°C° 0 mm 5 mps 769 mmHg 32%
    09:00 -10°C° 0 mm 5 mps 769 mmHg 31%
    10:00 -8°C° 0 mm 5 mps 769 mmHg 28%
    11:00 -7°C° 0 mm 5 mps 768 mmHg 26%
    12:00 -6°C° 0 mm 5 mps 768 mmHg 23%
    13:00 -5°C° 0 mm 5 mps 768 mmHg 23%
    14:00 -5°C° 0 mm 5 mps 768 mmHg 22%
    15:00 -4°C° 0 mm 4 mps 767 mmHg 22%
    16:00 -5°C° 0 mm 4 mps 767 mmHg 24%
    17:00 -7°C° 0 mm 4 mps 767 mmHg 27%
    18:00 -7°C° 0 mm 3 mps 767 mmHg 30%
    19:00 -7°C° 0 mm 3 mps 767 mmHg 30%
    20:00 -7°C° 0 mm 3 mps 767 mmHg 31%
    21:00 -8°C° 0 mm 4 mps 767 mmHg 32%
    22:00 -7°C° 0 mm 3 mps 766 mmHg 32%
    23:00 -8°C° 0 mm 3 mps 766 mmHg 33%

    Tomorrow, 14 November, Wednesday

    Time Temperature Precipitation Wind Pressure Humidity
    00:00 -8°C° 0 mm 3 mps 766 mmHg 34%
    01:00 -8°C° 0 mm 3 mps 766 mmHg 35%
    02:00 -8°C° 0 mm 3 mps 765 mmHg 36%
    03:00 -8°C° 0 mm 3 mps 765 mmHg 36%
    04:00 -9°C° 0 mm 3 mps 765 mmHg 37%
    05:00 -9°C° 0 mm 3 mps 764 mmHg 37%
    06:00 -9°C° 0 mm 3 mps 764 mmHg 38%
    07:00 -8°C° 0 mm 3 mps 764 mmHg 36%
    08:00 -9°C° 0 mm 4 mps 764 mmHg 35%
    09:00 -8°C° 0 mm 4 mps 764 mmHg 34%
    10:00 -7°C° 0 mm 4 mps 763 mmHg 33%
    11:00 -4°C° 0 mm 4 mps 763 mmHg 32%
    12:00 -3°C° 0 mm 4 mps 763 mmHg 31%
    13:00 -3°C° 0 mm 4 mps 762 mmHg 32%
    14:00 -3°C° 0 mm 4 mps 762 mmHg 33%
    15:00 -2°C° 0 mm 4 mps 762 mmHg 34%
    16:00 -2°C° 0 mm 3 mps 761 mmHg 36%
    17:00 -4°C° 0 mm 3 mps 761 mmHg 38%
    18:00 -5°C° 0 mm 3 mps 761 mmHg 40%
    19:00 -5°C° 0 mm 3 mps 761 mmHg 39%
    20:00 -6°C° 0 mm 3 mps 761 mmHg 39%
    21:00 -6°C° 0 mm 3 mps 761 mmHg 38%
    22:00 -6°C° 0 mm 3 mps 761 mmHg 38%
    23:00 -6°C° 0 mm 3 mps 761 mmHg 38%

    Day after tomorrow, 15 November, Thursday

    Time Temperature Precipitation Wind Pressure Humidity
    00:00 -7°C° 0 mm 3 mps 761 mmHg 38%
    01:00 -7°C° 0 mm 3 mps 761 mmHg 38%
    02:00 -7°C° 0 mm 3 mps 761 mmHg 38%
    03:00 -7°C° 0 mm 3 mps 761 mmHg 38%
    04:00 -7°C° 0 mm 3 mps 761 mmHg 38%
    05:00 -7°C° 0 mm 3 mps 761 mmHg 37%
    06:00 -7°C° 0 mm 3 mps 761 mmHg 37%
    07:00 -7°C° 0 mm 3 mps 762 mmHg 34%
    08:00 -7°C° 0 mm 4 mps 762 mmHg 32%
    09:00 -7°C° 0 mm 4 mps 762 mmHg 29%
    10:00 -5°C° 0 mm 4 mps 762 mmHg 26%
    11:00 -4°C° 0 mm 4 mps 762 mmHg 24%
    12:00 -2°C° 0 mm 4 mps 762 mmHg 21%
    13:00 -2°C° 0 mm 4 mps 762 mmHg 22%
    14:00 -2°C° 0 mm 4 mps 762 mmHg 23%
    15:00 -2°C° 0 mm 4 mps 762 mmHg 23%
    16:00 -3°C° 0 mm 4 mps 762 mmHg 26%
    17:00 -4°C° 0 mm 4 mps 762 mmHg 29%
    18:00 -5°C° 0 mm 3 mps 762 mmHg 31%
    19:00 -5°C° 0 mm 3 mps 762 mmHg 32%
    20:00 -5°C° 0 mm 3 mps 763 mmHg 33%
    21:00 -5°C° 0 mm 3 mps 763 mmHg 34%
    22:00 -6°C° 0 mm 3 mps 763 mmHg 35%
    23:00 -6°C° 0 mm 3 mps 763 mmHg 35%

    16 November, Friday

    Time Temperature Precipitation Wind Pressure Humidity
    00:00 -6°C° 0 mm 3 mps 763 mmHg 35%
    01:00 -6°C° 0 mm 3 mps 763 mmHg 34%
    02:00 -6°C° 0 mm 3 mps 763 mmHg 34%
    03:00 -6°C° 0 mm 3 mps 763 mmHg 34%
    04:00 -6°C° 0 mm 3 mps 763 mmHg 33%
    05:00 -6°C° 0 mm 3 mps 763 mmHg 33%
    06:00 -7°C° 0 mm 4 mps 763 mmHg 32%
    07:00 -7°C° 0 mm 4 mps 763 mmHg 31%
    08:00 -5°C° 0 mm 4 mps 764 mmHg 30%
    09:00 -5°C° 0 mm 4 mps 764 mmHg 28%
    10:00 -4°C° 0 mm 4 mps 764 mmHg 27%
    11:00 -3°C° 0 mm 4 mps 764 mmHg 25%
    12:00 -1°C° 0 mm 4 mps 764 mmHg 23%
    13:00 -1°C° 0 mm 4 mps 764 mmHg 25%
    14:00 0°C° 0 mm 3 mps 764 mmHg 26%
    15:00 0°C° 0 mm 3 mps 763 mmHg 27%
    16:00 -1°C° 0 mm 3 mps 763 mmHg 29%
    17:00 -2°C° 0 mm 3 mps 763 mmHg 32%
    18:00 -4°C° 0 mm 3 mps 763 mmHg 34%
    19:00 -5°C° 0 mm 3 mps 763 mmHg 34%
    20:00 -5°C° 0 mm 3 mps 763 mmHg 34%
    21:00 -5°C° 0 mm 3 mps 763 mmHg 34%
    22:00 -4°C° 0 mm 2 mps 763 mmHg 34%
    23:00 -4°C° 0 mm 2 mps 763 mmHg 34%

    17 November, Saturday

    Time Temperature Precipitation Wind Pressure Humidity
    00:00 -4°C° 0 mm 2 mps 763 mmHg 33%
    01:00 -5°C° 0 mm 2 mps 763 mmHg 33%
    02:00 -5°C° 0 mm 2 mps 763 mmHg 32%
    03:00 -5°C° 0 mm 2 mps 762 mmHg 32%
    04:00 -5°C° 0 mm 2 mps 762 mmHg 31%
    05:00 -5°C° 0 mm 2 mps 762 mmHg 31%
    06:00 -5°C° 0 mm 2 mps 762 mmHg 30%
    07:00 -5°C° 0 mm 2 mps 762 mmHg 29%
    08:00 -4°C° 0 mm 2 mps 762 mmHg 28%
    09:00 -4°C° 0 mm 2 mps 762 mmHg 26%
    10:00 -3°C° 0 mm 2 mps 761 mmHg 24%
    11:00 -1°C° 0 mm 2 mps 761 mmHg 22%
    12:00 +2°C° 0 mm 1 mps 761 mmHg 19%
    13:00 +2°C° 0 mm 1 mps 760 mmHg 21%
    14:00 +2°C° 0 mm 1 mps 760 mmHg 23%
    15:00 +2°C° 0 mm 1 mps 759 mmHg 25%
    16:00 -1°C° 0 mm 2 mps 759 mmHg 26%
    17:00 -2°C° 0 mm 2 mps 758 mmHg 27%
    18:00 -3°C° 0 mm 2 mps 758 mmHg 28%
    19:00 -3°C° 0 mm 2 mps 758 mmHg 28%
    20:00 -3°C° 0 mm 2 mps 758 mmHg 27%
    21:00 -4°C° 0 mm 2 mps 757 mmHg 27%
    22:00 -4°C° 0 mm 2 mps 757 mmHg 28%
    23:00 -4°C° 0 mm 2 mps 756 mmHg 29%

    18 November, Sunday

    Time Temperature Precipitation Wind Pressure Humidity
    00:00 -4°C° 0 mm 2 mps 756 mmHg 30%
    01:00 -4°C° 0 mm 2 mps 755 mmHg 31%
    02:00 -5°C° 0 mm 3 mps 755 mmHg 33%
    03:00 -5°C° 0 mm 3 mps 754 mmHg 35%
    04:00 -5°C° 0 mm 3 mps 753 mmHg 36%
    05:00 -6°C° 0 mm 3 mps 753 mmHg 36%
    06:00 -6°C° 0 mm 3 mps 752 mmHg 37%
    07:00 -5°C° 0 mm 3 mps 752 mmHg 36%
    08:00 -5°C° 0 mm 4 mps 751 mmHg 35%
    09:00 -4°C° 0 mm 4 mps 751 mmHg 34%
    10:00 -3°C° 0 mm 4 mps 750 mmHg 33%
    11:00 -2°C° 0 mm 4 mps 750 mmHg 33%
    12:00 -1°C° 0 mm 4 mps 749 mmHg 32%
    13:00 -1°C° 0 mm 4 mps 749 mmHg 34%
    14:00 -1°C° 0 mm 4 mps 748 mmHg 35%
    15:00 0°C° 0 mm 3 mps 748 mmHg 37%
    16:00 0°C° 0 mm 3 mps 748 mmHg 38%
    17:00 -1°C° 0 mm 3 mps 748 mmHg 39%
    18:00 -2°C° 0 mm 3 mps 748 mmHg 40%
    19:00 -2°C° 0 mm 3 mps 748 mmHg 42%
    20:00 -2°C° 0 mm 3 mps 748 mmHg 45%
    21:00 -2°C° 0 mm 3 mps 748 mmHg 47%
    22:00 -2°C° 0 mm 3 mps 748 mmHg 51%
    23:00 -2°C° 0 mm 3 mps 748 mmHg 55%
    Show more